Marisat 102

operational
NORAD ID: 9478 Int'l Des: 1976-101 Owner: COM Country: US
HEO

Marisat 102について

説明を読み込み中...

リアルタイム位置

3D地球を読み込み中...

次回通過

高度履歴

Altitude vs Time

uPlot chart will show altitude changes over time

軌道要素

1 9478U 76101A 26061.73782796 -.00000135 00000-0 00000+0 0 9996
2 9478 6.0488 310.4312 0107025 349.4768 161.4495 0.97591001122328
Epoch: Mar 2, 2026 • Age: 37 hours

現在のステータス

高度 36552.0 km
速度 3.05 km/s
衛星直下点 5.94°N, 28.53°E
タイプ other

大規模コンステレーション

Loading constellations...